KF6YUA Weather Reports


time (UTC)temp
F
wind
direction
speed
knots
gust
knots
rain 1hr
in
rain 24hr
in
rain mn
in
humidity
%
barometer
mb
20260506160414 59 196 1.7 1.7 0.00 0.00 0.00 86 1023.0
20260506155912 59 90 0.0 1.7 0.00 0.00 0.00 86 1023.0
20260506155409 60 90 0.0 0.9 0.00 0.00 0.00 86 1022.9
20260506153531 58 180 0.0 0.0 0.00 0.00 0.00 89 1023.0
20260506153028 58 180 0.0 0.0 0.00 0.00 0.00 89 1022.7
20260506152525 58 180 0.0 0.0 0.00 0.00 0.00 89 1022.9
20260506152024 58 165 0.0 0.0 0.00 0.00 0.00 90 1022.9
20260506151521 58 180 0.0 0.0 0.00 0.00 0.00 91 1022.9
20260506151018 57 180 0.0 0.0 0.00 0.00 0.00 91 1022.9
20260506150514 57 165 0.0 0.0 0.00 0.00 0.00 91 1022.8
20260506150011 57 165 0.0 0.0 0.00 0.00 0.00 92 1022.9
20260506145508 57 165 0.0 0.0 0.00 0.00 0.00 93 1022.8
20260506145005 56 165 0.0 0.0 0.00 0.00 0.00 93 1022.7
20260506144502 56 165 0.0 0.0 0.00 0.00 0.00 94 1022.8
20260506144000 56 165 0.0 0.0 0.00 0.00 0.00 94 1022.8
20260506143456 56 165 0.0 0.0 0.00 0.00 0.00 94 1022.6
20260506142955 56 165 0.0 0.0 0.00 0.00 0.00 94 1022.8
20260506142452 55 165 0.0 0.0 0.00 0.00 0.00 95 1022.4
20260506141950 55 165 0.0 0.0 0.00 0.00 0.00 95 1022.4
20260506141448 55 165 0.0 0.0 0.00 0.00 0.00 95 1022.5
20260506140947 55 165 0.0 0.0 0.00 0.00 0.00 96 1022.5
20260506140443 55 165 0.0 0.0 0.00 0.00 0.00 96 1022.6
20260506135939 55 165 0.0 0.0 0.00 0.00 0.00 96 1022.3
20260506135437 54 165 0.0 0.0 0.00 0.00 0.00 96 1022.4
20260506134933 54 165 0.0 0.0 0.00 0.00 0.00 96 1022.5
20260506134429 54 165 0.0 0.0 0.00 0.00 0.00 96 1022.5
20260506133926 54 165 0.0 0.0 0.00 0.00 0.00 96 1022.3
20260506133423 54 165 0.0 0.0 0.00 0.00 0.00 96 1022.5
20260506132920 54 165 0.0 0.0 0.00 0.00 0.00 96 1022.5
20260506132417 54 145 0.0 0.0 0.00 0.00 0.00 96 1022.4
20260506131915 54 145 0.0 0.0 0.00 0.00 0.00 96 1022.4
20260506131411 54 145 0.0 0.0 0.00 0.00 0.00 96 1022.1
20260506130908 54 145 0.0 0.0 0.00 0.00 0.00 96 1022.1
20260506130404 54 145 0.0 0.0 0.00 0.00 0.00 96 1022.1
20260506125902 54 145 0.0 0.0 0.00 0.00 0.00 96 1022.2
20260506125401 54 145 0.0 0.0 0.00 0.00 0.00 96 1022.0
20260506124858 54 145 0.0 0.0 0.00 0.00 0.00 96 1022.1
20260506124355 54 145 0.0 0.0 0.00 0.00 0.00 96 1021.7
20260506123853 54 145 0.0 0.9 0.00 0.00 0.00 96 1022.0
20260506123351 54 151 0.0 0.0 0.00 0.00 0.00 96 1022.0
20260506122848 54 151 0.0 0.0 0.00 0.00 0.00 96 1021.8
20260506122345 54 160 0.0 0.9 0.00 0.00 0.00 96 1021.8
20260506121843 54 114 0.0 0.0 0.00 0.00 0.00 96 1022.0
20260506121340 54 114 0.0 0.0 0.00 0.00 0.00 96 1022.0
20260506120837 54 114 0.0 0.0 0.00 0.00 0.00 96 1021.7
20260506120335 54 114 0.0 0.0 0.00 0.00 0.00 96 1021.7
20260506115832 54 114 0.0 0.0 0.00 0.00 0.00 96 1021.8
20260506115330 54 114 0.0 0.0 0.00 0.00 0.00 96 1021.8
20260506114828 54 114 0.0 0.0 0.00 0.00 0.00 96 1021.7
20260506114325 54 114 0.0 0.0 0.00 0.00 0.00 96 1021.6
20260506113824 54 114 0.0 0.0 0.00 0.00 0.00 96 1021.8
20260506113321 54 114 0.0 0.0 0.00 0.00 0.00 96 1021.6
20260506112817 54 114 0.0 0.0 0.00 0.00 0.00 96 1021.7
20260506112315 54 114 0.0 0.0 0.00 0.00 0.00 96 1021.6
20260506111812 54 114 0.0 0.0 0.00 0.00 0.00 96 1021.6
20260506111310 54 114 0.0 0.0 0.00 0.00 0.00 96 1022.0
20260506110807 54 114 0.0 0.0 0.00 0.00 0.00 96 1021.4
20260506110304 54 114 0.0 0.0 0.00 0.00 0.00 96 1021.4
20260506105800 54 114 0.0 0.0 0.00 0.00 0.00 96 1021.6
20260506105257 54 114 0.0 0.0 0.00 0.00 0.00 96 1021.2
20260506104755 54 114 0.0 0.0 0.00 0.00 0.00 96 1021.5
20260506104253 54 114 0.0 0.0 0.00 0.00 0.00 96 1021.5
20260506103750 54 114 0.0 0.0 0.00 0.00 0.00 96 1021.3
20260506103247 54 114 0.0 0.9 0.00 0.00 0.00 96 1021.4
20260506102745 54 99 0.0 0.9 0.00 0.00 0.00 96 1021.1
20260506102243 54 106 0.0 0.0 0.00 0.00 0.00 96 1021.2
20260506101739 54 106 0.0 0.0 0.00 0.00 0.00 96 1021.2
20260506101236 54 81 0.0 0.0 0.00 0.00 0.00 96 1021.1
20260506100734 54 90 0.0 0.0 0.00 0.00 0.00 96 1021.1
20260506100232 54 90 0.0 0.0 0.00 0.00 0.00 96 1021.2
20260506095730 54 90 0.0 0.0 0.00 0.00 0.00 95 1021.1
20260506095226 54 90 0.0 0.0 0.00 0.00 0.00 95 1021.0
20260506094723 54 99 0.0 0.0 0.00 0.00 0.00 95 1021.2
20260506094221 54 99 0.0 0.0 0.00 0.00 0.00 95 1021.2
20260506093720 54 99 0.0 0.0 0.00 0.00 0.00 95 1021.0
20260506093216 54 99 0.0 0.0 0.00 0.00 0.00 95 1021.1
20260506092714 54 99 0.0 0.0 0.00 0.00 0.00 95 1021.1
20260506092212 54 99 0.0 0.9 0.00 0.00 0.00 95 1021.1
20260506091709 54 106 0.0 0.0 0.00 0.00 0.00 95 1021.2
20260506091206 54 106 0.0 0.0 0.00 0.00 0.00 95 1021.2
20260506090704 54 106 0.0 0.0 0.00 0.00 0.00 95 1021.2
20260506090201 54 106 0.0 0.0 0.00 0.00 0.00 95 1020.9
20260506085658 54 106 0.0 0.0 0.00 0.00 0.00 95 1021.2
20260506085153 54 106 0.0 0.9 0.00 0.00 0.00 95 1021.2
20260506084651 54 99 0.0 0.0 0.00 0.00 0.00 95 1021.2
20260506084147 54 99 0.0 0.0 0.00 0.00 0.00 95 1021.1
20260506083644 54 99 0.0 0.0 0.00 0.00 0.00 95 1021.2
20260506083142 54 99 0.0 0.0 0.00 0.00 0.00 95 1021.0
20260506082639 54 99 0.0 0.0 0.00 0.00 0.00 95 1021.4
20260506082134 54 99 0.0 0.0 0.00 0.00 0.00 95 1021.0
20260506081632 54 99 0.0 0.0 0.00 0.00 0.00 95 1021.1
20260506081130 54 99 0.0 0.0 0.00 0.00 0.00 95 1021.1
20260506080627 54 99 0.0 0.0 0.00 0.00 0.00 95 1021.0
20260506080124 54 99 0.0 0.0 0.00 0.00 0.00 95 1021.1
20260506073108 54 187 0.0 0.0 0.00 0.00 0.00 95 1020.8
20260506072604 54 120 0.0 1.7 0.00 0.00 0.00 95 1020.8
20260506072102 54 114 0.0 0.9 0.00 0.00 0.00 95 1020.5
20260506071559 53 157 0.0 0.0 0.00 0.00 0.00 96 1020.5
20260506071057 53 90 0.0 0.0 0.00 0.00 0.00 96 1020.4
20260506070554 53 114 0.0 0.0 0.00 0.00 0.00 96 1020.4
20260506062028 54 106 0.0 0.0 0.00 0.07 0.07 94 1020.3
20260506061524 54 106 0.0 0.0 0.00 0.07 0.07 94 1020.2
20260506061022 54 99 0.0 0.0 0.00 0.07 0.07 94 1020.3
20260506060520 54 172 0.0 0.9 0.00 0.07 0.07 94 1020.2
20260506050949 54 170 0.0 1.7 0.00 0.07 0.07 93 1019.8
20260506050446 54 148 0.0 0.9 0.00 0.07 0.07 93 1019.6
20260506044937 54 145 0.9 1.7 0.00 0.07 0.07 93 1019.5
20260506044435 54 198 0.0 2.6 0.00 0.07 0.07 93 1019.5
20260506043931 54 135 0.0 1.7 0.00 0.07 0.07 93 1019.3
20260506043429 54 173 0.9 1.7 0.00 0.07 0.07 93 1019.5
20260506042927 55 145 0.0 1.7 0.00 0.07 0.07 93 1019.2
20260506042426 55 131 0.0 1.7 0.00 0.07 0.07 93 1019.2
20260506041924 55 151 0.0 1.7 0.00 0.07 0.07 93 1019.1
20260506041421 55 145 0.0 1.7 0.00 0.07 0.07 93 1019.2
20260506040918 54 145 0.0 1.7 0.00 0.07 0.07 93 1019.0
20260506040415 55 154 0.9 1.7 0.00 0.07 0.07 93 1019.0
20260506035911 55 165 0.0 0.9 0.00 0.07 0.07 93 1018.8
20260506035409 55 145 0.0 0.9 0.00 0.07 0.07 93 1018.9
20260506034906 55 157 0.0 0.9 0.00 0.07 0.07 92 1018.8
20260506034403 55 117 0.0 1.7 0.00 0.07 0.07 92 1018.9
20260506033900 55 99 0.0 0.0 0.00 0.07 0.07 91 1018.6
20260506033357 55 99 0.0 0.0 0.00 0.07 0.07 91 1018.5
20260506032854 56 105 0.9 0.9 0.00 0.07 0.07 90 1018.7
20260506032350 56 90 0.0 1.7 0.00 0.07 0.07 89 1018.3
20260506031847 57 151 0.0 1.7 0.00 0.07 0.07 87 1018.2
20260506031345 57 175 0.0 0.0 0.00 0.07 0.07 87 1018.2
20260506030842 57 157 0.0 0.0 0.00 0.07 0.07 86 1018.0
20260506030340 57 157 0.0 1.7 0.00 0.07 0.07 85 1017.8
20260506025837 58 90 0.0 0.0 0.00 0.07 0.07 85 1018.0
20260506025333 58 157 0.0 2.6 0.00 0.07 0.07 84 1018.0
20260506024830 58 114 0.0 0.9 0.00 0.07 0.07 84 1018.0
20260506024327 58 159 0.0 1.7 0.00 0.07 0.07 83 1017.9
20260506023823 58 105 0.0 1.7 0.00 0.07 0.07 83 1017.9
20260506023320 58 168 0.0 0.0 0.00 0.07 0.07 83 1017.8
20260506022817 58 206 1.7 1.7 0.00 0.07 0.07 82 1017.6
20260506022315 58 166 0.0 0.0 0.00 0.07 0.07 83 1017.8
20260506021813 59 157 0.0 0.0 0.00 0.07 0.07 83 1017.8
20260506021309 58 180 0.0 0.0 0.00 0.07 0.07 82 1017.6
20260506020806 58 151 0.0 2.6 0.00 0.07 0.07 82 1017.6
20260506020304 59 219 3.5 3.5 0.00 0.07 0.07 82 1017.6
20260506015801 59 109 0.0 0.9 0.00 0.07 0.07 81 1017.6
20260506015259 59 151 0.0 1.7 0.00 0.07 0.07 81 1017.7
20260506014755 59 157 0.0 4.3 0.00 0.07 0.07 81 1017.6
20260506014252 59 161 1.7 2.6 0.00 0.07 0.07 80 1017.4
20260506013749 59 180 0.0 3.5 0.00 0.07 0.07 80 1017.4
20260506013246 60 164 0.0 1.7 0.00 0.07 0.07 80 1017.5
20260506012743 59 144 0.0 2.6 0.00 0.07 0.07 80 1017.4
20260506012239 59 202 6.1 6.1 0.00 0.07 0.07 79 1017.6
20260506011737 60 178 2.6 4.3 0.00 0.07 0.07 79 1017.4
20260506011233 60 169 1.7 2.6 0.00 0.07 0.07 78 1017.4
20260506010732 60 145 0.0 1.7 0.00 0.07 0.07 78 1017.5
20260506010228 60 191 0.0 1.7 0.00 0.07 0.07 78 1017.4
20260506005726 60 192 0.9 4.3 0.00 0.07 0.07 78 1017.3
20260506005222 61 162 0.0 1.7 0.00 0.07 0.07 77 1017.5
20260506004718 61 145 0.0 1.7 0.00 0.07 0.07 79 1017.5
20260506004216 60 172 0.0 4.3 0.00 0.07 0.07 78 1017.6
20260506003712 60 173 0.9 4.3 0.00 0.07 0.07 79 1017.2
20260506003208 61 217 4.3 4.3 0.00 0.07 0.07 76 1017.2
20260506002704 61 215 0.0 2.6 0.00 0.07 0.07 77 1017.3
20260506002200 61 190 1.7 4.3 0.00 0.07 0.07 77 1017.3
20260506001656 62 187 0.0 1.7 0.00 0.07 0.07 77 1017.3
20260506001154 62 188 1.7 2.6 0.00 0.07 0.07 76 1017.0
20260506000651 62 165 0.0 1.7 0.00 0.07 0.07 77 1017.2
20260506000148 62 183 2.6 2.6 0.00 0.07 0.07 75 1017.0
20260505235646 62 166 0.9 7.0 0.00 0.07 0.07 77 1017.0
20260505235143 62 151 0.9 3.5 0.00 0.07 0.07 76 1017.2
20260505234640 62 196 1.7 4.3 0.00 0.07 0.07 74 1017.2
20260505234137 64 90 0.0 1.7 0.00 0.07 0.07 74 1017.2
20260505233634 63 180 0.0 3.5 0.00 0.07 0.07 74 1017.3
20260505233132 62 180 0.9 4.3 0.00 0.07 0.07 76 1017.2
20260505232629 62 177 4.3 6.1 0.00 0.07 0.07 75 1017.2
20260505232126 63 96 0.0 1.7 0.00 0.07 0.07 76 1017.0
20260505231623 62 186 2.6 9.6 0.00 0.07 0.07 75 1017.3
20260505231122 62 247 4.3 5.2 0.00 0.07 0.07 75 1017.1
20260505230620 64 190 2.6 2.6 0.00 0.07 0.07 74 1017.2
20260505230115 66 176 3.5 3.5 0.00 0.07 0.07 71 1017.1
20260505225612 66 144 1.7 1.7 0.00 0.07 0.07 74 1017.2
20260505225108 64 145 0.0 2.6 0.00 0.07 0.07 74 1017.3
20260505224605 64 96 0.0 2.6 0.00 0.07 0.07 75 1017.3
20260505224103 64 107 0.0 2.6 0.00 0.07 0.07 75 1017.2
20260505223600 64 90 1.7 4.3 0.00 0.07 0.07 75 1017.5
20260505223056 64 206 2.6 6.1 0.00 0.07 0.07 74 1017.3
20260505222552 65 161 0.0 4.3 0.00 0.07 0.07 73 1017.3
20260505222048 66 180 0.0 1.7 0.00 0.07 0.07 74 1017.4
20260505221546 65 169 0.0 5.2 0.00 0.07 0.07 75 1017.5
20260505221042 65 145 0.0 2.6 0.00 0.07 0.07 75 1017.3
20260505220539 65 180 1.7 3.5 0.00 0.07 0.07 74 1017.3
20260505220037 66 180 0.9 3.5 0.00 0.07 0.07 74 1017.2
20260505215535 66 165 0.0 3.5 0.00 0.07 0.07 73 1017.4
20260505215032 66 57 0.0 2.6 0.00 0.07 0.07 74 1017.6
20260505214530 65 180 0.9 3.5 0.00 0.07 0.07 73 1017.5
20260505214027 66 151 0.0 2.6 0.00 0.07 0.07 72 1017.4
20260505213525 65 157 0.9 1.7 0.00 0.07 0.07 72 1017.5
20260505213021 65 172 0.0 1.7 0.00 0.07 0.07 76 1017.5
20260505212517 64 165 0.0 3.5 0.00 0.07 0.07 74 1017.6
20260505212015 66 176 1.7 1.7 0.00 0.07 0.07 73 1017.7
20260505211512 65 160 0.0 2.6 0.00 0.07 0.07 76 1017.6
20260505211008 65 126 0.0 0.9 0.00 0.07 0.07 76 1017.7
20260505210505 64 157 2.6 2.6 0.00 0.07 0.07 75 1017.6
20260505210002 64 160 0.0 1.7 0.00 0.07 0.07 75 1017.8
20260505205500 63 160 0.0 2.6 0.00 0.07 0.07 76 1017.7
20260505204956 63 194 1.7 2.6 0.00 0.07 0.07 76 1017.9
20260505204455 64 168 0.9 1.7 0.00 0.07 0.07 75 1017.8
20260505203952 63 194 0.9 2.6 0.00 0.07 0.07 77 1017.9
20260505203448 63 189 0.0 1.7 0.00 0.07 0.07 76 1017.8
20260505202944 63 90 0.0 1.7 0.00 0.07 0.07 78 1017.8
20260505202441 62 165 0.0 2.6 0.00 0.07 0.07 77 1017.7
20260505201937 63 180 0.0 0.0 0.00 0.07 0.07 76 1017.8
20260505201434 62 165 1.7 1.7 0.00 0.07 0.07 76 1017.9
20260505200932 63 173 0.0 1.7 0.00 0.07 0.07 76 1018.0
20260505200430 62 185 0.0 3.5 0.00 0.07 0.07 76 1017.7
20260505195925 63 99 0.0 2.6 0.00 0.07 0.07 76 1017.9
20260505195423 64 163 1.7 1.7 0.00 0.07 0.07 75 1017.7
20260505194920 63 151 0.0 1.7 0.00 0.07 0.07 77 1018.0
20260505194417 62 162 1.7 2.6 0.00 0.07 0.07 77 1018.0
20260505193917 64 128 1.7 1.7 0.00 0.07 0.07 76 1017.7
20260505193415 64 68 1.7 2.6 0.00 0.07 0.07 75 1018.1
20260505192913 64 148 1.7 3.5 0.00 0.07 0.07 73 1018.0
20260505192410 65 180 0.0 1.7 0.00 0.07 0.07 74 1018.1
20260505191908 65 151 0.0 1.7 0.00 0.07 0.07 75 1017.8
20260505191407 63 165 0.0 3.5 0.00 0.07 0.07 78 1018.0
20260505190903 62 162 0.0 3.5 0.00 0.07 0.07 79 1017.9
20260505190358 62 81 0.0 1.7 0.00 0.07 0.07 81 1018.1
20260505185854 63 180 1.7 1.7 0.00 0.07 0.07 80 1018.1
20260505185350 62 109 0.0 0.9 0.00 0.07 0.07 81 1018.1
20260505184847 62 174 0.0 1.7 0.00 0.07 0.07 79 1018.0
20260505184344 60 140 0.0 3.5 0.00 0.07 0.07 80 1018.1
20260505183841 62 183 1.7 2.6 0.00 0.07 0.07 77 1018.1
20260505183338 63 147 0.0 1.7 0.00 0.07 0.07 77 1017.9
20260505182834 63 166 0.9 0.9 0.00 0.07 0.07 76 1018.0
20260505182331 62 170 0.0 1.7 0.00 0.07 0.07 76 1018.2
20260505181828 62 151 0.9 1.7 0.00 0.07 0.07 78 1018.1
20260505181325 61 156 1.7 1.7 0.00 0.07 0.07 78 1017.8
20260505180822 61 106 0.0 2.6 0.00 0.07 0.07 80 1018.1
20260505180318 62 180 0.0 1.7 0.00 0.07 0.07 80 1017.9
20260505175815 61 74 1.7 1.7 0.00 0.07 0.07 80 1017.9
20260505175311 60 148 0.0 1.7 0.00 0.07 0.07 77 1017.7
20260505174808 60 261 0.0 0.0 0.00 0.07 0.07 78 1017.9
20260505174305 60 171 0.0 1.7 0.00 0.07 0.07 77 1017.6
20260505173801 60 180 0.0 0.9 0.00 0.07 0.07 77 1017.5
20260505173258 60 160 0.0 0.9 0.00 0.07 0.07 78 1017.5
20260505172754 60 240 0.0 1.7 0.00 0.07 0.07 79 1017.6
20260505172252 59 172 0.0 0.9 0.00 0.07 0.07 78 1017.5
20260505171747 59 131 0.0 1.7 0.00 0.07 0.07 79 1017.6
20260505171244 59 180 0.0 0.9 0.00 0.07 0.07 81 1017.7
20260505170740 59 262 0.0 2.6 0.00 0.07 0.07 81 1017.5
20260505170238 59 165 0.0 1.7 0.00 0.07 0.07 80 1017.7
20260505165733 59 206 0.0 1.7 0.00 0.07 0.07 81 1017.7
20260505165229 59 166 0.0 1.7 0.00 0.07 0.07 80 1017.6
20260505164725 59 168 0.0 0.0 0.00 0.07 0.07 81 1017.8
20260505164222 59 157 0.0 2.6 0.00 0.07 0.07 79 1017.5
20260505163720 59 166 0.9 1.7 0.00 0.07 0.07 79 1017.5
20260505163218 60 120 0.0 1.7 0.00 0.07 0.07 81 1017.4
20260505162715 59 173 0.0 1.7 0.00 0.07 0.07 82 1017.6
20260505162212 59 157 0.0 0.0 0.00 0.07 0.07 85 1017.6
20260505161709 58 237 1.7 1.7 0.00 0.07 0.07 83 1017.4
20260505161207 58 264 0.0 1.7 0.00 0.07 0.07 84 1017.3
20260505160704 59 142 1.7 1.7 0.00 0.07 0.07 86 1017.2